Vorticity
24 10 8 10 -3 42 24 4 -4 5 8 11 12 12 5 5 9 12 12 13 12 9 7 7 7 8 7
37 -4 14 43 25 8 12 9 7 11 12 9 9 11 11 12 11 8 5 5 6 6 5 8 7 11 10
-3 22 11 34 16 15 9 14 14 9 10 10 9 8 6 6 6 7 10 16 20 24 25 24 23 23 22
-5 8 12 14 9 12 12 11 8 7 6 5 6 7 9 19 26 22 18 15 15 15 15 16 19 20 21
17 9 9 7 10 8 8 4 5 5 6 8 16 25 18 11 9 8 7 9 10 9 9 10 9 8 7
11 19 12 11 9 5 6 5 7 12 25 20 11 8 8 8 7 9 9 9 9 10 9 8 7 8 10
5 7 6 6 7 9 13 24 28 16 9 8 7 8 9 9 9 10 11 10 9 8 8 8 9 9 9
5 6 9 11 14 22 24 12 8 8 8 8 8 10 10 9 11 11 10 8 8 9 9 10 9 8 10
14 14 16 20 25 14 9 8 8 8 9 8 9 10 10 10 11 9 8 8 9 8 8 9 9 10 10
16 18 21 18 10 8 8 7 8 7 6 7 9 9 11 10 10 10 9 7 8 8 8 8 9 8 9
14 16 15 10 10 8 6 6 6 7 7 7 8 9 9 14 15 10 7 7 8 8 8 10 10 10 11
15 13 12 10 9 8 7 6 7 8 8 7 8 9 8 10 15 13 8 7 8 8 7 8 10 11 11
13 13 12 11 10 8 6 6 7 9 9 9 9 9 9 9 9 12 13 7 10 9 7 7 8 10 10
13 13 12 12 11 10 9 8 9 10 11 10 9 9 8 9 8 9 11 9 8 9 8 7 7 9 11
13 13 12 12 11 10 10 9 9 10 12 11 10 9 9 8 9 10 9 10 9 7 8 8 9 11 12
11 11 11 11 10 9 9 10 11 11 12 12 12 11 10 9 11 9 9 11 10 9 8 10 12 12 11
12 11 10 10 10 11 11 12 12 12 12 13 14 12 11 11 11 12 13 12 10 11 9 9 12 9 11
Height
3026 3030 3033 3030 3032 3033 3033 3033 3033 3034 3034 3033 3034 3033 3034 3035 3035 3035 3036 3036 3036 3036 3037 3036 3036 3035 3035
3017 3018 3020 3021 3023 3024 3024 3023 3025 3026 3024 3024 3024 3025 3027 3025 3025 3025 3024 3024 3025 3024 3023 3022 3021 3020 3021
3016 3013 3016 3013 3014 3016 3017 3017 3017 3015 3017 3015 3015 3017 3017 3016 3015 3014 3013 3012 3011 3010 3009 3008 3007 3006 3006
3014 3012 3011 3010 3009 3009 3011 3011 3008 3007 3008 3006 3007 3007 3007 3006 3005 3003 3002 3002 3002 3000 2999 2998 2997 2996 2995
3009 3008 3006 3005 3005 3004 3003 3003 3001 3000 3000 2999 2997 2999 2998 2997 2996 2996 2995 2994 2993 2992 2992 2991 2990 2989 2989
3005 3004 3002 3001 2999 2998 2997 2995 2993 2991 2992 2990 2990 2991 2991 2989 2989 2989 2987 2986 2986 2985 2984 2983 2982 2981 2981
2998 2996 2995 2994 2993 2991 2989 2988 2987 2985 2986 2985 2985 2985 2984 2982 2981 2981 2979 2978 2977 2976 2975 2975 2974 2973 2972
2992 2990 2988 2985 2983 2982 2981 2980 2980 2981 2982 2981 2979 2979 2978 2976 2975 2973 2971 2969 2969 2968 2967 2966 2965 2964 2963
2985 2982 2979 2977 2976 2976 2976 2977 2977 2976 2976 2975 2973 2972 2970 2968 2966 2965 2964 2962 2961 2959 2957 2955 2954 2952 2952
2976 2974 2972 2972 2972 2972 2971 2971 2970 2969 2966 2967 2966 2964 2964 2961 2959 2958 2956 2954 2952 2950 2948 2946 2944 2942 2941
2970 2968 2967 2966 2966 2965 2965 2964 2963 2962 2959 2958 2958 2955 2953 2954 2955 2952 2949 2947 2945 2943 2940 2938 2936 2932 2931
2966 2964 2963 2962 2961 2960 2959 2958 2957 2956 2953 2950 2950 2948 2945 2945 2947 2947 2943 2941 2938 2936 2932 2929 2926 2923 2919
2961 2960 2959 2957 2956 2955 2954 2952 2951 2949 2947 2944 2942 2940 2937 2935 2934 2936 2933 2933 2929 2926 2922 2920 2917 2914 2911
2957 2955 2953 2952 2950 2949 2947 2945 2944 2941 2938 2935 2932 2930 2927 2925 2922 2923 2922 2918 2920 2916 2912 2911 2908 2905 2901
2951 2949 2947 2946 2944 2942 2940 2938 2935 2934 2932 2927 2923 2920 2917 2915 2913 2912 2911 2909 2907 2903 2901 2899 2898 2894 2891
2946 2944 2942 2940 2938 2935 2932 2929 2927 2924 2922 2919 2915 2911 2908 2906 2904 2901 2900 2897 2896 2893 2889 2885 2885 2885 2880
2941 2938 2936 2934 2931 2928 2924 2921 2918 2915 2913 2909 2905 2900 2897 2895 2896 2893 2889 2888 2883 2881 2878 2874 2870 2871 2867